Location: La Petruère
(48.1085°N, 0.9379°W)
Time: 23:41:17
(UTC+00:00)

Daily predictions for brighter satellites

Satellite Brightness Start Highest point End
(mag) Time Altitude Azimuth Time Altitude Azimuth Time Altitude Azimuth
IGS 5A 4.5 20:22:21 10° S 20:26:21 47° W 20:30:24 10° NNW
Cosmos 1980 Rocket 2.6 20:24:06 10° S 20:29:19 41° ESE 20:34:36 10° NE
CARTOSAT-1 4.1 20:26:59 10° SE 20:31:03 43° ENE 20:35:09 10° N
Cosmos 2228 Rocket 4.4 20:29:51 10° SE 20:33:29 24° E 20:37:06 10° NE
Cosmos 1464 Rocket 4.1 20:28:21 10° S 20:34:25 62° E 20:40:29 10° NNE
ARGOS Delta rocket 4.2 20:30:47 10° NNE 20:36:18 72° E 20:41:42 10° S
Cosmos 2344 3.6 20:29:54 10° SSW 20:37:11 55° ESE 20:44:34 10° NE
ISS -3.4 20:34:09 10° WNW 20:37:29 63° NNE 20:40:49 10° E
IRS-1A Rocket 4.4 20:31:57 10° SSE 20:37:38 83° WSW 20:43:28 10° NNW
Cosmos 2369 3.8 20:33:27 10° S 20:38:56 55° ESE 20:44:27 10° NE
Cosmos 1354 Rocket 4.4 20:34:58 10° S 20:39:55 43° ESE 20:44:56 10° NE
Cosmos 773 Rocket 4.4 20:35:07 10° NNW 20:40:15 52° ENE 20:45:17 10° SE
Spot 2 Rocket 4.3 20:36:04 10° SE 20:40:39 37° ENE 20:45:17 10° N
Cosmos 1536 2.9 20:36:52 10° N 20:40:53 82° W 20:44:55 10° S
SPOT 3 Rocket 3.8 20:36:44 10° SSE 20:41:46 57° ENE 20:46:49 10° N
ATLAS 2AS CENTAUR R/B 3.3 20:34:44 10° S 20:41:56 43° ESE 20:48:59 10° NE
Okean 1 4.0 20:40:58 10° SSE 20:44:39 36° E 20:48:22 10° NNE
Cosmos 1486 Rocket 4.1 20:40:01 10° SSW 20:45:20 88° WNW 20:50:39 10° NNE
H-2A R/B 2.7 20:42:07 10° N 20:46:09 57° WNW 20:50:10 10° SSW
NOSS 3-4 (A) 3.6 20:40:47 10° SW 20:46:31 77° NW 20:52:47 10° NE
NOSS 3-4 (C) 3.6 20:40:49 10° SW 20:46:35 78° NW 20:52:52 10° NE
Nadezhda 4 Rocket 4.1 20:41:16 10° N 20:47:30 67° ENE 20:53:37 10° SSE
Cosmos 1697 Rocket 2.9 20:42:24 10° SSW 20:48:04 80° WNW 20:53:47 10° NNE
RESURS DK-1 3.2 20:44:34 10° S 20:48:09 29° ESE 20:51:44 10° NE
SL-4 R/B 3.3 20:44:09 10° WNW 20:48:18 34° SW 20:52:09 10° SSE
Cosmos 2360 4.4 20:48:10 10° SSW 20:53:51 77° WNW 20:59:35 10° NNE
ATLAS CENTAUR R/B 4.1 20:52:06 10° NNW 20:55:15 17° NNE 20:58:19 10° ENE
Cosmos 2297 Rocket 4.1 20:51:11 10° NW 20:55:43 25° WSW 21:00:14 10° SSW
Cosmos 44 Rocket 3.8 20:52:39 10° NNW 20:57:14 47° NE 21:01:28 12° ESE
ARIANE 5 R/B 4.0 20:53:39 11° ESE 20:57:15 27° ENE 21:01:01 10° N
MetOp-B 4.2 20:53:14 10° SSE 20:58:37 85° WSW 21:04:00 10° NNW
Cosmos 1184 Rocket 3.0 21:00:54 10° SSW 21:03:54 64° WNW 21:06:55 10° N
Cosmos 158 Rocket 4.4 21:00:06 10° NNW 21:05:06 50° ENE 21:09:24 14° SE
ATLAS 3B R/B 3.4 20:58:58 10° NW 21:06:05 52° NE 21:13:24 10° ESE
Meteor 2-9 Rocket 4.3 21:00:59 10° N 21:06:48 77° ENE 21:12:06 12° SSE
Cosmos 1975 3.5 21:06:52 10° N 21:10:44 40° ENE 21:13:33 17° SE
Timation 2 Rocket 4.3 21:04:17 10° NNW 21:10:51 73° WSW 21:17:06 12° SSE
Cosmos 2026 Rocket 4.3 21:05:52 10° N 21:11:53 52° ENE 21:17:00 15° SSE
Cosmos 389 Rocket 3.8 21:08:51 10° NNW 21:12:07 37° W 21:15:23 10° SSW
Cosmos 1503 Rocket 4.1 21:09:21 10° SSW 21:14:37 84° WNW 21:20:00 10° NNE
ERS-1 Rocket 3.1 21:12:32 15° SSE 21:16:43 63° ENE 21:21:42 10° N
CZ-4B R/B 3.4 21:13:57 10° N 21:16:46 29° WNW 21:19:32 10° SW
CZ-4C R/B 4.5 21:11:48 10° NW 21:17:14 27° NNE 21:23:35 10° ENE
SL-16 R/B 3.2 21:13:28 14° SSE 21:17:15 28° ESE 21:21:58 10° NE
BREEZE-M (TANK) 4.3 21:13:02 10° W 21:17:22 86° N 21:36:21 10° E
Helios 1A Rocket 2.9 21:19:01 15° SSE 21:22:18 85° WSW 21:26:20 10° NNW
CZ-2C R/B 4.1 21:19:14 10° NNE 21:23:53 50° E 21:27:47 14° S
Cosmos 1733 Rocket 3.9 21:20:50 10° N 21:25:00 37° ENE 21:27:44 19° SE
OE (NEXTSAT) 4.3 21:26:15 10° WSW 21:29:28 52° S 21:32:08 14° E
SJ 16-02 1.4 21:27:33 10° SSW 21:31:55 80° WNW 21:36:20 10° NNE
Meteor 1-18 Rocket 4.2 21:26:50 10° S 21:32:30 70° E 21:38:06 10° NNE
Cosmos 2292 Rocket 2.5 21:33:43 10° N 21:36:46 88° E 21:38:15 26° S
Cosmos 2034 Rocket 4.4 21:31:15 10° SSW 21:37:30 68° W 21:43:52 10° N
Cosmos 2278 3.7 21:31:56 10° SSW 21:37:36 84° ESE 21:43:19 10° NNE
ASTRO F (AKARI) 4.1 21:37:45 26° SSE 21:39:21 89° W 21:42:33 10° NNW
Cosmos 1862 Rocket 4.3 21:37:31 22° SE 21:39:50 37° E 21:43:57 10° NNE
BREEZE M DEB (TANK) 4.1 21:37:24 10° WNW 21:41:39 60° SSW 21:55:47 13° SE
Cosmos 2360 Rocket 3.5 21:40:43 18° SE 21:42:29 21° E 21:46:32 10° NE
Cosmos 1726 4.4 21:41:48 10° NE 21:43:39 13° ENE 21:45:09 11° E
Cosmos 2263 Rocket 2.5 21:39:42 10° NNW 21:45:13 61° WSW 21:49:11 19° S
NOSS 2-1 (C) 3.0 21:46:44 23° S 21:48:25 45° SE 21:51:31 10° NE
SPOT 5 3.4 21:45:43 16° S 21:49:57 62° W 21:55:02 10° NNW
Terra 1.8 21:47:57 21° S 21:51:09 83° WSW 21:55:56 10° NNW
Cosmos 1441 Rocket 4.0 21:51:03 27° SE 21:52:11 33° E 21:55:34 10° NNE
Resurs 01 Rocket 4.1 21:49:52 10° SW 21:52:29 15° W 21:55:07 10° NW
Cosmos 1346 Rocket 2.8 21:50:23 23° S 21:52:47 69° E 21:56:48 10° NNE
SAR-Lupe-1 4.4 21:50:03 10° NNE 21:53:31 45° E 21:54:46 31° SSE
Cosmos 2279 Rocket 4.1 21:53:30 20° SSE 21:57:42 58° E 22:03:47 10° NNE
NOSS 2-1 (D) 2.7 21:56:58 22° SSW 21:58:52 59° SE 22:02:02 10° NE
Cosmos 1680 Rocket 4.5 21:55:13 10° N 22:00:10 38° ENE 22:03:26 19° ESE
USA 215 4.1 21:55:59 10° ENE 22:01:25 27° SE 22:03:42 22° SSE
Iridium 2 3.9 21:59:18 10° N 22:03:00 55° E 22:04:23 33° SE
Cosmos 1818 4.4 22:02:53 10° NNW 22:08:09 45° NE 22:12:08 17° ESE
Cosmos 2228 Rocket 4.4 22:07:09 10° SW 22:11:27 40° WNW 22:15:45 10° N
Iridium 4 Rocket 4.3 22:07:38 10° NNE 22:11:46 32° E 22:13:44 24° ESE
Cosmos 1378 4.2 22:08:55 13° SW 22:11:53 41° WNW 22:15:22 10° N
Cosmos 1980 Rocket 3.6 22:08:08 10° WSW 22:13:22 38° NW 22:18:40 10° NNE
SL-24 R/B - RUBIN 2 4.1 22:09:18 10° NW 22:13:33 49° WSW 22:15:31 29° S
Cosmos 1898 Rocket 4.3 22:11:50 27° SE 22:13:44 35° ESE 22:18:31 10° NE
ISS -2.9 22:11:04 10° W 22:14:07 32° SW 22:14:21 32° SSW
Okean 1-7 3.9 22:17:26 29° SE 22:18:40 34° E 22:22:37 10° NNE
Cosmos 2322 Rocket 2.2 22:18:02 23° S 22:21:30 62° ESE 22:27:03 10° NNE
Cosmos 1844 Rocket 2.8 22:19:20 10° NNW 22:24:56 66° ENE 22:27:57 28° SE
Cosmos 2180 Rocket 4.5 22:21:19 26° S 22:24:58 71° E 22:31:05 10° NNE
Okean 3 4.5 22:25:02 27° ESE 22:25:57 30° E 22:29:41 10° NNE
RESURS DK-1 4.1 22:22:20 10° WSW 22:26:04 33° NW 22:29:50 10° NNE
Cosmos 2333 Rocket 3.3 22:25:18 24° SE 22:26:36 26° ESE 22:31:12 10° NE
Cosmos 1805 3.1 22:23:18 10° N 22:27:14 82° E 22:28:28 42° SSE
Meteor 2-4 Rocket 4.3 22:22:23 11° SSW 22:27:55 55° WNW 22:33:27 10° N
BREEZE-M DEB (TANK) 2.6 22:28:47 10° W 22:31:16 43° SSW 22:31:52 39° S
ATLAS 2AS CENTAUR R/B 3.5 22:25:07 10° WSW 22:32:48 60° NW 22:40:13 10° NE
ARIANE 5 R/B 3.7 22:31:11 22° SSW 22:33:33 38° W 22:37:46 10° NNW
ATLAS CENTAUR R/B 2.4 22:30:23 10° NNW 22:35:10 50° NE 22:37:50 23° ESE
USA 267 3.9 22:31:49 10° E 22:38:11 56° NNE 22:44:34 10° NW
Cosmos 1733 3.2 22:36:35 10° NNW 22:40:21 69° W 22:41:23 44° SSW
Cosmos 1766 3.4 22:38:29 10° N 22:42:23 64° ENE 22:43:23 45° SE
Cosmos 2219 Rocket 3.2 22:44:47 26° SE 22:45:55 28° ESE 22:50:34 10° NE
Cosmos 1844 3.7 22:42:50 10° NNW 22:48:41 83° ENE 22:51:27 33° SSE
Cosmos 1703 Rocket 3.6 22:48:16 42° SSE 22:49:36 66° E 22:54:00 10° NNE
Meteor 1-4 Rocket 3.3 22:49:34 10° NNW 22:52:53 41° W 22:53:35 36° SW
ATLAS 3B R/B 3.3 22:49:51 10° NW 22:56:54 50° WSW 23:00:39 28° S
NOSS 2-1 (E) 4.2 22:55:16 10° WSW 22:58:13 38° NW 23:01:23 10° NNE
Cosmos 1707 4.1 23:00:36 25° E 23:00:53 25° E 23:04:05 10° NE
SL-16 R/B 2.8 22:55:29 10° SW 23:01:02 54° WNW 23:06:37 10° NNE
Cosmos 1655 Rocket 4.0 22:54:52 10° N 23:01:09 83° W 23:04:10 33° S
Cosmos 2237 4.4 22:58:24 19° SW 23:02:37 74° WNW 23:08:23 10° NNE
Cosmos 1782 Rocket 3.5 22:59:17 10° N 23:03:39 74° ENE 23:04:50 47° SSE
Meteor 2-10 4.3 23:01:36 10° NNW 23:06:46 58° W 23:08:49 34° SSW
ERS-2 3.0 23:03:35 10° NNE 23:06:52 34° E 23:06:52 34° E
CZ-4C R/B 3.3 23:00:11 10° NW 23:07:07 62° NE 23:14:17 14° ESE
NOSS 3-1 (C) 4.1 23:00:34 10° NW 23:07:54 79° NE 23:14:02 21° SE
SJ 16-02 4.3 23:09:27 10° WNW 23:11:15 12° NW 23:13:05 10° NNW
SWARM A 4.4 23:12:49 58° E 23:12:52 58° E 23:16:13 10° N
Gblst 52 Del rocket 4.2 23:07:07 10° WSW 23:13:38 77° SSE 23:19:24 10° ENE
Cosmos 1908 Rocket 4.1 23:10:21 10° NNW 23:14:31 46° W 23:15:46 35° SW
Cosmos 2237 Rocket 4.2 23:14:56 12° ESE 23:16:02 13° E 23:18:28 10° ENE
Meteor 1-15 Rocket 4.4 23:12:27 10° NNW 23:18:04 66° W 23:20:26 35° SSW
Cosmos 1470 2.8 23:14:35 10° N 23:18:26 64° ENE 23:19:01 55° SE
Cosmos 1726 2.4 23:15:23 10° NNW 23:18:59 52° W 23:19:26 48° SW
COSMOS 2428 3.4 23:17:53 32° SE 23:19:12 36° ESE 23:24:21 10° NE
Cosmos 1300 Rocket 3.8 23:15:28 10° N 23:19:47 59° ENE 23:20:51 44° SE
Cosmos 2242 Rocket 3.7 23:21:24 43° SSW 23:22:51 76° WNW 23:27:25 10° N
ALOS 2 2.5 23:22:00 49° SSE 23:23:09 82° ENE 23:27:33 10° NNW
Cosmos 1937 Rocket 3.5 23:22:46 35° SSW 23:25:02 85° WNW 23:30:22 10° NNE
Cosmos 1242 Rocket 3.5 23:22:16 10° N 23:25:39 36° ENE 23:26:07 34° E
Cosmos 2360 Rocket 2.4 23:22:24 24° SW 23:25:53 70° WNW 23:31:34 10° NNE
Okean 2 Rocket 4.1 23:22:23 10° N 23:26:39 39° ENE 23:28:05 30° ESE
Terra 4.3 23:28:32 10° W 23:29:40 11° W 23:30:48 10° WNW
Cosmos 2333 4.1 23:29:02 36° SSW 23:31:23 82° ESE 23:37:04 10° NNE
Cosmos 1908 4.4 23:30:39 10° N 23:34:03 30° ENE 23:34:48 28° E
Cosmos 1867 4.0 23:33:44 39° SSE 23:34:49 44° ESE 23:40:00 10° NE
Meteor 1-21 4.5 23:34:35 37° SSE 23:36:41 59° E 23:42:23 10° NNE
Cosmos 1626 3.3 23:37:36 29° E 23:37:40 29° E 23:40:54 10° NNE
Cosmos 1842 3.5 23:38:57 49° SW 23:39:40 59° WNW 23:43:31 10° N
Cosmos 1680 Rocket 4.5 23:37:27 10° NW 23:42:14 35° WSW 23:43:44 29° SW
Meteor 2-17 Rocket 4.4 23:37:02 10° NNW 23:43:13 79° W 23:45:46 38° S
Cosmos 1953 4.0 23:40:09 10° NNE 23:43:27 24° ENE 23:44:46 20° E
Cosmos 2278 Rocket 3.1 23:39:34 10° NNW 23:45:01 45° NE 23:48:51 19° ESE
USA 215 3.2 23:38:27 10° NE 23:45:03 83° SE 23:51:00 13° SW
Cosmos 1674 2.9 23:50:45 51° ESE 23:50:57 52° E 23:54:37 10° NNE
Cosmos 1818 4.2 23:46:39 10° NW 23:51:41 39° WSW 23:52:45 35° SW
Sich 1 Rocket 3.5 23:48:36 10° N 23:53:03 87° E 23:54:00 55° SSE
